Voltar ao catálogo

ARIANE 5 DEB

SYLDA

AtivoGTO
NORAD 26109·DEBRIS·🇫🇷 France

Lançado Mar 21, 2000 de Guiana Space Centre

Loading…

TLE

EnvelhecendoSource: Space-Track

Época: Sep 14, 2026, 05:22 UTC

1 26109U 00016C   26257.22406755  .00000012  00000-0  17510-2 0  9997
2 26109   6.5611 240.9184 7151579 273.4064  14.4772  2.28383679219788

Acompanhe ARIANE 5 DEB em tempo real com AllMySat

Download on the App Store